CW9516 Weather Reports


time (UTC)temp
C
wind
direction
speed
KPH
gust
KPH
rain 1hr
cm
rain 24hr
cm
rain mn
cm
humidity
%
barometer
mb
20260506002603 0 347 0.0 0.0 0.00 1.12 0.86 95 1013.0
20260506002103 0 347 0.0 0.0 0.00 1.12 0.86 95 1013.0
20260506001603 0 347 0.0 0.0 0.00 1.12 0.86 95 1012.8
20260506001103 0 347 0.0 0.0 0.03 1.12 0.86 94 1012.7
20260506000604 0 347 0.0 0.0 0.03 1.12 0.86 94 1012.8
20260506000104 0 347 0.0 3.2 0.05 1.12 0.86 94 1012.5
20260505235603 0 348 1.6 4.8 0.08 1.12 0.86 94 1012.4
20260505235103 0 348 1.6 3.2 0.10 1.12 0.86 94 1012.8
20260505234603 0 348 1.6 4.8 0.10 1.12 0.86 94 1013.0
20260505234104 0 345 1.6 4.8 0.13 1.12 0.86 94 1012.8
20260505233604 0 332 0.0 4.8 0.13 1.12 0.86 94 1012.6
20260505233103 1 332 3.2 14.5 0.13 1.12 0.86 94 1012.4
20260505232603 1 313 1.6 9.7 0.13 1.12 0.86 94 1012.6
20260505232103 1 4 3.2 8.0 0.15 1.12 0.86 94 1012.4
20260505231603 1 326 1.6 9.7 0.15 1.12 0.86 94 1012.5
20260505231104 1 333 4.8 16.1 0.13 1.09 0.84 94 1012.5
20260505225604 2 340 0.0 4.8 0.13 1.04 0.79 94 1012.2
20260505225103 2 340 1.6 8.0 0.13 1.02 0.76 94 1012.4
20260505224603 2 16 3.2 11.3 0.15 1.02 0.76 93 1012.1
20260505224104 2 56 1.6 9.7 0.13 0.99 0.74 93 1011.9
20260505223603 2 319 3.2 12.9 0.13 0.99 0.74 93 1011.8
20260505222603 2 333 4.8 19.3 0.13 0.99 0.74 93 1011.7
20260505222104 3 333 3.2 14.5 0.10 0.97 0.71 92 1011.7
20260505221604 3 23 1.6 9.7 0.10 0.97 0.71 93 1011.7
20260505221103 3 316 6.4 12.9 0.10 0.97 0.71 93 1011.5
20260505220603 3 67 1.6 4.8 0.08 0.94 0.69 93 1011.3
20260505215603 4 55 1.6 9.7 0.05 0.91 0.66 93 1011.0
20260505215103 4 66 1.6 4.8 0.03 0.89 0.64 94 1011.5
20260505214603 4 28 0.0 1.6 0.00 0.86 0.61 93 1011.5
20260505214103 4 28 0.0 3.2 0.00 0.86 0.61 93 1011.4
20260505213604 4 88 1.6 9.7 0.00 0.86 0.61 93 1011.6
20260505213104 4 62 0.0 3.2 0.00 0.86 0.61 93 1011.5
20260505212603 4 64 1.6 9.7 0.00 0.86 0.61 93 1011.4
20260505212103 4 58 0.0 3.2 0.00 0.86 0.61 94 1011.4
20260505211604 4 59 0.0 4.8 0.00 0.86 0.61 94 1011.3
20260505210604 4 74 1.6 3.2 0.00 0.86 0.61 94 1011.2
20260505210104 4 74 0.0 1.6 0.00 0.86 0.61 94 1011.3
20260505205603 4 74 1.6 4.8 0.00 0.86 0.61 94 1011.3
20260505205103 4 76 0.0 4.8 0.00 0.86 0.61 94 1012.1
20260505204604 4 336 0.0 9.7 0.00 0.86 0.61 94 1012.3
20260505204103 4 30 0.0 9.7 0.00 0.86 0.61 94 1012.4
20260505203603 4 40 0.0 4.8 0.00 0.86 0.61 94 1012.4
20260505203103 4 40 1.6 4.8 0.00 0.86 0.61 94 1012.5
20260505202604 4 41 1.6 4.8 0.00 0.86 0.61 94 1012.4
20260505202103 4 357 1.6 4.8 0.00 0.86 0.61 94 1012.5
20260505201603 4 88 0.0 3.2 0.00 0.86 0.61 95 1012.4
20260505195603 4 89 1.6 3.2 0.00 0.86 0.61 95 1012.2
20260505195104 4 89 1.6 3.2 0.00 0.86 0.61 95 1012.7
20260505194604 4 89 0.0 3.2 0.00 0.86 0.61 95 1012.8
20260505194104 4 89 0.0 3.2 0.03 0.86 0.61 96 1012.6
20260505193603 4 89 0.0 3.2 0.03 0.86 0.61 96 1012.6
20260505192603 3 89 0.0 3.2 0.03 0.86 0.61 95 1012.6
20260505192103 3 89 1.6 4.8 0.05 0.86 0.61 95 1012.6
20260505191603 3 89 0.0 3.2 0.05 0.86 0.61 95 1012.6
20260505191103 3 89 1.6 4.8 0.05 0.86 0.61 95 1012.7
20260505190103 3 98 0.0 3.2 0.05 0.86 0.61 95 1012.8
20260505185603 3 119 0.0 3.2 0.05 0.86 0.61 95 1012.9
20260505184603 3 121 0.0 1.6 0.05 0.86 0.61 95 1013.2
20260505184103 4 121 0.0 4.8 0.03 0.84 0.58 95 1013.4
20260505183604 4 76 0.0 0.0 0.03 0.84 0.58 96 1013.4
20260505183103 4 76 0.0 0.0 0.03 0.84 0.58 96 1013.4
20260505182603 4 76 0.0 0.0 0.03 0.84 0.58 96 1013.4
20260505182103 4 76 0.0 0.0 0.00 0.81 0.56 96 1013.3
20260505181603 3 76 0.0 1.6 0.00 0.81 0.56 96 1013.3
20260505180103 3 74 0.0 0.0 0.03 0.81 0.56 96 1013.6
20260505175603 3 74 0.0 3.2 0.03 0.81 0.56 96 1013.6
20260505175103 3 74 0.0 1.6 0.03 0.81 0.56 96 1013.9
20260505174603 3 74 1.6 4.8 0.03 0.81 0.56 96 1013.9
20260505174103 3 77 0.0 0.0 0.03 0.81 0.56 96 1014.0
20260505173603 3 77 1.6 4.8 0.03 0.81 0.56 96 1013.9
20260505172604 3 63 0.0 1.6 0.03 0.81 0.56 96 1013.9
20260505172103 3 63 1.6 3.2 0.03 0.81 0.56 96 1014.0
20260505171603 3 63 0.0 4.8 0.03 0.81 0.56 96 1013.9
20260505171103 3 63 0.0 3.2 0.05 0.81 0.56 96 1014.0
20260505170604 3 63 0.0 4.8 0.05 0.81 0.56 96 1013.9
20260505170104 3 63 0.0 0.0 0.03 0.79 0.53 96 1013.8
20260505165603 3 63 0.0 3.2 0.03 0.79 0.53 95 1013.8
20260505165104 3 63 0.0 3.2 0.03 0.79 0.53 96 1014.4
20260505164604 3 63 0.0 3.2 0.03 0.79 0.53 96 1014.4
20260505164103 3 65 0.0 4.8 0.03 0.79 0.53 95 1014.2
20260505163603 3 64 1.6 4.8 0.03 0.79 0.53 96 1014.5
20260505162603 3 65 0.0 1.6 0.03 0.79 0.53 96 1014.3
20260505162103 3 65 0.0 0.0 0.03 0.79 0.53 96 1014.4
20260505161603 3 65 0.0 1.6 0.05 0.79 0.53 96 1014.3
20260505153103 2 324 0.0 3.2 0.05 0.76 0.51 96 1014.9
20260505152604 2 324 0.0 4.8 0.05 0.76 0.51 95 1015.0
20260505152103 2 324 1.6 4.8 0.05 0.76 0.51 95 1015.0
20260505151103 2 324 3.2 4.8 0.03 0.74 0.48 95 1014.9
20260505150603 2 324 0.0 4.8 0.03 0.74 0.48 95 1014.9
20260505140604 2 24 0.0 3.2 0.08 0.71 0.46 95 1015.0
20260505124603 2 342 3.2 12.9 0.08 0.61 0.36 94 1013.8
20260505124103 2 5 3.2 9.7 0.10 0.61 0.36 94 1013.7
20260505123604 2 25 3.2 8.0 0.15 0.61 0.36 94 1013.5
20260505123104 3 339 1.6 4.8 0.18 0.58 0.33 94 1013.6
20260505122604 3 334 6.4 16.1 0.18 0.58 0.33 94 1013.6
20260505122104 3 337 3.2 12.9 0.20 0.58 0.33 94 1013.5
20260505121603 3 33 4.8 14.5 0.20 0.58 0.33 94 1013.4
20260505121104 3 341 3.2 12.9 0.23 0.58 0.33 94 1013.4
20260505120604 3 349 1.6 8.0 0.20 0.56 0.30 94 1013.3
20260505120103 3 350 1.6 8.0 0.20 0.56 0.30 94 1013.4
20260505115603 3 61 1.6 4.8 0.20 0.56 0.30 94 1013.2
20260505115103 3 6 3.2 9.7 0.20 0.56 0.30 94 1013.2
20260505114103 3 31 3.2 16.1 0.15 0.51 0.25 94 1013.0
20260505113603 3 5 1.6 9.7 0.10 0.46 0.20 94 1013.0
20260505113103 4 336 1.6 12.9 0.05 0.41 0.15 94 1012.8
20260505112603 4 329 3.2 12.9 0.08 0.41 0.15 94 1012.6
20260505111604 4 331 4.8 16.1 0.08 0.38 0.13 94 1012.6
20260505111104 4 349 4.8 19.3 0.05 0.36 0.10 94 1012.4
20260505110603 5 336 4.8 12.9 0.05 0.36 0.10 94 1012.4
20260505102103 5 350 6.4 14.5 0.08 0.33 0.08 94 1011.4
20260505101603 6 333 8.0 19.3 0.05 0.30 0.05 94 1011.3
20260505101103 6 340 6.4 14.5 0.05 0.30 0.05 94 1011.0
20260505100603 6 339 1.6 8.0 0.05 0.30 0.05 94 1011.0
20260505100104 6 342 3.2 4.8 0.03 0.28 0.03 94 1010.8
20260505095103 6 343 1.6 4.8 0.00 0.25 0.00 94 1011.1
20260505094603 6 343 1.6 4.8 0.00 0.25 0.00 94 1011.1
20260505094103 6 343 3.2 8.0 0.00 0.25 0.00 94 1011.0
20260505093603 6 343 1.6 4.8 0.00 0.25 0.00 93 1011.0
20260505092611 7 343 3.2 8.0 0.00 0.25 0.00 93 1011.0
20260505091604 7 344 1.6 4.8 0.00 0.25 0.00 93 1011.1
20260505091103 8 344 4.8 9.7 0.00 0.25 0.00 93 1011.2
20260505090604 8 327 3.2 8.0 0.00 0.25 0.00 95 1011.0
20260505085103 8 327 0.0 1.6 0.00 0.25 0.00 95 1010.9
20260505084603 8 327 0.0 0.0 0.00 0.25 0.00 95 1011.0
20260505084103 8 327 0.0 1.6 0.00 0.25 0.00 95 1011.0
20260505083603 8 327 0.0 3.2 0.00 0.25 0.00 95 1011.1
20260505083103 8 327 0.0 0.0 0.00 0.25 0.00 95 1011.1
20260505082603 8 327 0.0 0.0 0.00 0.25 0.00 95 1011.1
20260505082103 8 327 0.0 0.0 0.00 0.25 0.00 95 1011.0
20260505081603 8 327 0.0 0.0 0.00 0.25 0.00 95 1011.1
20260505081103 8 327 0.0 0.0 0.00 0.25 0.00 95 1011.1
20260505080603 8 327 0.0 0.0 0.00 0.25 0.00 95 1011.1
20260505080103 8 327 0.0 0.0 0.00 0.25 0.00 95 1011.0
20260505075603 8 327 0.0 0.0 0.00 0.25 0.00 95 1011.0
20260505075103 8 327 0.0 0.0 0.00 0.25 0.00 95 1011.0
20260505074603 8 327 0.0 0.0 0.00 0.25 0.00 95 1011.1
20260505073603 8 327 0.0 0.0 0.00 0.25 0.00 95 1011.3
20260505072103 8 327 0.0 0.0 0.00 0.25 0.00 94 1011.3
20260505071604 8 327 0.0 0.0 0.00 0.25 0.00 94 1011.3
20260505071104 8 327 0.0 0.0 0.00 0.25 0.00 94 1011.3
20260505070604 8 327 0.0 0.0 0.00 0.25 0.00 94 1011.5
20260505070104 8 327 0.0 0.0 0.00 0.25 0.00 94 1011.5
20260505065603 8 327 0.0 0.0 0.00 0.25 0.00 94 1011.5
20260505065104 8 327 0.0 0.0 0.00 0.25 0.00 94 1011.5
20260505064604 8 327 0.0 0.0 0.00 0.25 0.00 94 1011.4
20260505064104 8 327 0.0 0.0 0.00 0.25 0.00 94 1011.3
20260505063604 8 327 0.0 0.0 0.00 0.25 0.00 94 1011.3
20260505063104 8 327 0.0 0.0 0.00 0.25 0.00 94 1011.3
20260505062603 8 327 0.0 0.0 0.00 0.25 0.00 94 1011.4
20260505062104 8 327 0.0 0.0 0.03 0.25 0.00 94 1011.4
20260505061604 8 327 0.0 0.0 0.03 0.25 0.00 94 1011.3
20260505061104 8 327 0.0 0.0 0.03 0.25 0.00 94 1011.4
20260505060603 8 327 0.0 0.0 0.03 0.25 0.00 94 1011.3
20260505060104 8 327 0.0 0.0 0.03 0.25 0.00 94 1011.3
20260505055604 8 327 0.0 0.0 0.03 0.25 0.25 93 1011.3
20260505055104 8 327 0.0 0.0 0.03 0.25 0.25 93 1011.7
20260505054604 8 327 0.0 0.0 0.03 0.25 0.25 93 1011.5
20260505054104 8 327 0.0 0.0 0.05 0.25 0.25 93 1011.5
20260505053604 8 327 0.0 0.0 0.05 0.25 0.25 93 1011.3
20260505053104 8 327 0.0 0.0 0.05 0.25 0.25 93 1011.5
20260505052103 8 327 0.0 0.0 0.03 0.23 0.23 93 1011.5
20260505051604 8 327 0.0 0.0 0.05 0.23 0.23 92 1011.6
20260505050603 9 327 0.0 0.0 0.08 0.23 0.23 93 1011.6
20260505050104 9 327 0.0 0.0 0.08 0.23 0.23 93 1011.5
20260505041603 9 327 0.0 0.0 0.18 0.18 0.18 89 1011.8
20260505041103 9 327 0.0 0.0 0.18 0.18 0.18 89 1011.8
20260505040604 9 327 0.0 3.2 0.15 0.15 0.15 88 1011.8
20260505040103 9 327 0.0 3.2 0.15 0.15 0.15 88 1011.8
20260505035603 9 327 0.0 3.2 0.15 0.15 0.15 87 1011.7
20260505035103 10 327 0.0 1.6 0.15 0.15 0.15 86 1012.0
20260505034603 10 327 3.2 8.0 0.13 0.13 0.13 84 1012.1
20260505034103 10 327 0.0 9.7 0.13 0.13 0.13 82 1012.0
20260505033603 11 327 1.6 8.0 0.10 0.10 0.10 80 1012.1
20260505033104 11 328 1.6 8.0 0.05 0.05 0.05 77 1012.0
20260505032603 11 284 3.2 11.3 0.00 0.00 0.00 73 1011.8
20260505032104 12 341 1.6 4.8 0.00 0.00 0.00 68 1011.3
20260505031103 12 341 0.0 4.8 0.00 0.00 0.00 66 1011.0
20260505030603 12 341 0.0 4.8 0.00 0.00 0.00 66 1011.0
20260505030104 12 341 1.6 8.0 0.00 0.00 0.00 65 1011.0
20260505025603 12 342 0.0 3.2 0.00 0.00 0.00 66 1010.9
20260505025103 12 342 1.6 4.8 0.00 0.00 0.00 65 1010.8
20260505024603 12 342 1.6 4.8 0.00 0.00 0.00 65 1010.6
20260505024103 12 341 1.6 4.8 0.00 0.00 0.00 64 1010.7
20260505023603 12 339 0.0 4.8 0.00 0.00 0.00 64 1010.5
20260505023103 12 339 1.6 9.7 0.00 0.00 0.00 63 1010.5
20260505022603 12 340 3.2 16.1 0.00 0.00 0.00 62 1010.4
20260505022103 13 26 4.8 16.1 0.00 0.00 0.00 61 1010.4
20260505021604 12 212 0.0 0.0 0.00 0.00 0.00 62 1010.0
20260505021103 12 212 0.0 0.0 0.00 0.00 0.00 63 1010.1
20260505020603 12 212 0.0 0.0 0.00 0.00 0.00 63 1010.1
20260505020104 12 212 0.0 0.0 0.00 0.00 0.00 63 1009.8
20260505015603 12 212 0.0 0.0 0.00 0.00 0.00 63 1009.8
20260505015103 12 212 0.0 0.0 0.00 0.00 0.00 63 1010.1
20260505014103 13 212 0.0 0.0 0.00 0.00 0.00 63 1009.9
20260505013603 13 212 0.0 0.0 0.00 0.00 0.00 63 1009.8
20260505013103 13 212 0.0 0.0 0.00 0.00 0.00 63 1009.8
20260505012103 13 212 0.0 0.0 0.00 0.00 0.00 63 1010.0
20260505011603 13 212 0.0 0.0 0.00 0.00 0.00 62 1010.0
20260505011104 13 212 0.0 0.0 0.00 0.00 0.00 60 1010.0
20260505010603 14 212 0.0 0.0 0.00 0.00 0.00 60 1010.0
20260505010104 15 212 0.0 3.2 0.00 0.00 0.00 58 1010.1
20260505005604 15 212 0.0 4.8 0.00 0.00 0.00 52 1010.2
20260505004603 16 212 0.0 8.0 0.00 0.00 0.00 47 1010.3
20260505004103 16 313 1.6 4.8 0.00 0.00 0.00 45 1009.9
20260505003604 16 317 0.0 3.2 0.00 0.00 0.00 43 1009.8
20260505003103 16 332 0.0 4.8 0.00 0.00 0.00 43 1009.8